| time (UTC) | temp C | wind direction | speed KPH | gust KPH | rain 1hr cm | rain 24hr cm | rain mn cm | humidity % | barometer mb |
| 20260502151842 | 17 | 29 | 6.4 | 19.3 | 0.00 | 0.00 | 0.00 | 76 | 1007.9 |
| 20260502150309 | 17 | 22 | 6.4 | 19.3 | 0.00 | 0.00 | 0.00 | 75 | 1008.7 |
| 20260502130701 | 12 | 330 | 3.2 | 17.7 | 0.00 | 0.00 | 0.00 | 93 | 1029.8 |
| 20260502123625 | 11 | 328 | 3.2 | 17.7 | 0.00 | 0.00 | 0.00 | 96 | 1030.1 |
| 20260502122608 | 11 | 310 | 3.2 | 17.7 | 0.00 | 0.00 | 0.00 | 96 | 1029.8 |
| 20260502121551 | 10 | 322 | 4.8 | 17.7 | 0.00 | 0.00 | 0.00 | 96 | 1029.8 |
| 20260502121050 | 10 | 317 | 6.4 | 17.7 | 0.00 | 0.00 | 0.00 | 96 | 1030.0 |
| 20260502120549 | 10 | 313 | 6.4 | 17.7 | 0.00 | 0.00 | 0.00 | 96 | 1029.6 |
| 20260502115547 | 10 | 312 | 4.8 | 17.7 | 0.00 | 0.00 | 0.00 | 96 | 1029.6 |
| 20260502114530 | 10 | 315 | 4.8 | 17.7 | 0.00 | 0.00 | 0.00 | 97 | 1029.2 |
| 20260502114029 | 10 | 317 | 4.8 | 17.7 | 0.00 | 0.00 | 0.00 | 97 | 1029.6 |
| 20260502113013 | 10 | 310 | 3.2 | 17.7 | 0.00 | 0.00 | 0.00 | 97 | 1029.5 |
| 20260502112512 | 10 | 313 | 3.2 | 17.7 | 0.00 | 0.00 | 0.00 | 96 | 1029.3 |
| 20260502112010 | 10 | 302 | 3.2 | 17.7 | 0.00 | 0.00 | 0.00 | 97 | 1029.0 |
| 20260502111510 | 10 | 319 | 1.6 | 17.7 | 0.00 | 0.00 | 0.00 | 96 | 1029.0 |
| 20260502111009 | 10 | 315 | 1.6 | 17.7 | 0.00 | 0.00 | 0.00 | 96 | 1028.9 |
| 20260502110507 | 10 | 317 | 4.8 | 17.7 | 0.00 | 0.00 | 0.00 | 97 | 1028.9 |
| 20260502110006 | 10 | 322 | 4.8 | 17.7 | 0.00 | 0.00 | 0.00 | 97 | 1028.9 |
| 20260502105505 | 10 | 312 | 1.6 | 17.7 | 0.00 | 0.00 | 0.00 | 97 | 1028.8 |
| 20260502105004 | 10 | 316 | 1.6 | 17.7 | 0.00 | 0.00 | 0.00 | 96 | 1028.8 |
| 20260502104504 | 10 | 322 | 0.0 | 17.7 | 0.00 | 0.00 | 0.00 | 96 | 1028.8 |
| 20260502104003 | 10 | 341 | 0.0 | 17.7 | 0.00 | 0.00 | 0.00 | 96 | 1028.4 |
| 20260502103502 | 10 | 0 | 0.0 | 17.7 | 0.00 | 0.00 | 0.00 | 96 | 1028.5 |
| 20260502103001 | 10 | 337 | 0.0 | 17.7 | 0.00 | 0.00 | 0.00 | 96 | 1028.5 |
| 20260502102500 | 10 | 312 | 0.0 | 17.7 | 0.00 | 0.00 | 0.00 | 97 | 1028.4 |
| 20260502101959 | 10 | 327 | 0.0 | 17.7 | 0.00 | 0.00 | 0.00 | 96 | 1028.0 |
| 20260502100942 | 10 | 322 | 1.6 | 17.7 | 0.00 | 0.00 | 0.00 | 96 | 1028.4 |
| 20260502100441 | 10 | 343 | 3.2 | 17.7 | 0.00 | 0.00 | 0.00 | 97 | 1028.0 |
| 20260502091401 | 10 | 315 | 8.0 | 17.7 | 0.00 | 0.00 | 0.00 | 97 | 1027.7 |
| 20260502090900 | 10 | 314 | 6.4 | 17.7 | 0.00 | 0.00 | 0.00 | 97 | 1028.1 |
| 20260502071301 | 11 | 350 | 0.0 | 17.7 | 0.00 | 0.00 | 0.00 | 94 | 1026.9 |
| 20260502070800 | 11 | 13 | 0.0 | 17.7 | 0.00 | 0.00 | 0.00 | 94 | 1026.7 |
| 20260502070259 | 11 | 2 | 1.6 | 17.7 | 0.00 | 0.00 | 0.00 | 94 | 1026.7 |
| 20260502065758 | 11 | 33 | 1.6 | 17.7 | 0.00 | 0.00 | 0.00 | 94 | 1026.5 |
| 20260502065257 | 11 | 16 | 3.2 | 17.7 | 0.00 | 0.00 | 0.00 | 95 | 1026.3 |
| 20260502064756 | 11 | 16 | 0.0 | 17.7 | 0.00 | 0.00 | 0.00 | 95 | 1026.8 |
| 20260502064255 | 11 | 8 | 1.6 | 17.7 | 0.00 | 0.00 | 0.00 | 95 | 1026.6 |
| 20260502063754 | 11 | 0 | 1.6 | 17.7 | 0.00 | 0.00 | 0.00 | 95 | 1026.4 |
| 20260502062221 | 11 | 359 | 0.0 | 17.7 | 0.00 | 0.00 | 0.00 | 96 | 1027.3 |
| 20260502061720 | 11 | 352 | 1.6 | 17.7 | 0.00 | 0.00 | 0.00 | 96 | 1027.2 |
| 20260502060147 | 11 | 338 | 3.2 | 17.7 | 0.00 | 0.00 | 0.00 | 96 | 1027.4 |
| 20260502055646 | 11 | 329 | 0.0 | 17.7 | 0.00 | 0.00 | 0.00 | 96 | 1027.2 |
| 20260502054629 | 11 | 331 | 0.0 | 17.7 | 0.00 | 0.00 | 0.00 | 96 | 1027.3 |
| 20260502054129 | 11 | 16 | 0.0 | 17.7 | 0.00 | 0.00 | 0.00 | 96 | 1026.8 |
| 20260502053627 | 11 | 305 | 0.0 | 17.7 | 0.00 | 0.00 | 0.00 | 95 | 1027.2 |
| 20260502053127 | 11 | 27 | 6.4 | 17.7 | 0.00 | 0.00 | 0.00 | 95 | 1026.8 |
| 20260502052626 | 11 | 24 | 3.2 | 17.7 | 0.00 | 0.00 | 0.00 | 95 | 1026.6 |
| 20260502051609 | 11 | 25 | 8.0 | 17.7 | 0.00 | 0.00 | 0.00 | 95 | 1026.6 |
| 20260502051108 | 11 | 22 | 8.0 | 17.7 | 0.00 | 0.00 | 0.00 | 95 | 1027.0 |
| 20260502050607 | 11 | 15 | 4.8 | 17.7 | 0.00 | 0.00 | 0.00 | 95 | 1027.1 |
| 20260502050107 | 11 | 20 | 4.8 | 17.7 | 0.00 | 0.00 | 0.00 | 95 | 1027.1 |
| 20260502045605 | 11 | 11 | 3.2 | 19.3 | 0.00 | 0.00 | 6.81 | 95 | 1027.2 |
| 20260502045105 | 11 | 10 | 4.8 | 20.9 | 0.00 | 0.00 | 6.81 | 95 | 1026.7 |
| 20260502044604 | 11 | 15 | 6.4 | 20.9 | 0.00 | 0.00 | 6.81 | 95 | 1026.8 |
| 20260502044102 | 12 | 14 | 4.8 | 17.7 | 0.00 | 0.00 | 6.81 | 96 | 1026.6 |
| 20260502043601 | 12 | 18 | 8.0 | 17.7 | 0.00 | 0.00 | 6.81 | 96 | 1026.4 |
| 20260502042545 | 12 | 9 | 3.2 | 24.1 | 0.00 | 0.00 | 6.81 | 96 | 1026.6 |
| 20260502042043 | 12 | 349 | 6.4 | 24.1 | 0.00 | 0.00 | 6.81 | 96 | 1026.8 |
| 20260502041027 | 12 | 347 | 6.4 | 17.7 | 0.00 | 0.00 | 6.81 | 96 | 1026.6 |
| 20260502040526 | 12 | 358 | 4.8 | 19.3 | 0.00 | 0.00 | 6.81 | 96 | 1026.3 |
| 20260502040025 | 12 | 348 | 4.8 | 19.3 | 0.00 | 0.00 | 6.81 | 97 | 1026.7 |
| 20260502035008 | 12 | 338 | 8.0 | 17.7 | 0.00 | 0.00 | 6.81 | 97 | 1026.5 |
| 20260502034507 | 12 | 331 | 3.2 | 17.7 | 0.00 | 0.00 | 6.81 | 97 | 1026.2 |
| 20260502034006 | 12 | 330 | 3.2 | 17.7 | 0.00 | 0.00 | 6.81 | 97 | 1026.7 |
| 20260502032949 | 12 | 9 | 3.2 | 17.7 | 0.00 | 0.00 | 6.81 | 96 | 1026.2 |
| 20260502031416 | 12 | 18 | 6.4 | 17.7 | 0.00 | 0.00 | 6.81 | 96 | 1026.2 |
| 20260502030915 | 12 | 13 | 4.8 | 17.7 | 0.00 | 0.00 | 6.81 | 96 | 1026.2 |
| 20260502030414 | 12 | 19 | 6.4 | 20.9 | 0.00 | 0.00 | 6.81 | 96 | 1025.9 |
| 20260502025913 | 12 | 27 | 11.3 | 20.9 | 0.00 | 0.00 | 6.81 | 97 | 1026.0 |
| 20260502025412 | 12 | 22 | 6.4 | 19.3 | 0.00 | 0.00 | 6.81 | 97 | 1026.1 |
| 20260502024911 | 12 | 356 | 3.2 | 20.9 | 0.00 | 0.00 | 6.81 | 97 | 1025.8 |
| 20260502023854 | 12 | 1 | 4.8 | 20.9 | 0.00 | 0.00 | 6.81 | 97 | 1025.9 |
| 20260502022837 | 12 | 331 | 6.4 | 24.1 | 0.00 | 0.00 | 6.81 | 97 | 1026.1 |
| 20260502022336 | 12 | 340 | 8.0 | 22.5 | 0.00 | 0.00 | 6.81 | 97 | 1026.0 |
| 20260502021835 | 12 | 337 | 8.0 | 19.3 | 0.00 | 0.00 | 6.78 | 98 | 1026.2 |
| 20260502021334 | 12 | 12 | 1.6 | 17.7 | 0.00 | 0.00 | 6.78 | 98 | 1025.6 |
| 20260502020833 | 12 | 355 | 4.8 | 17.7 | 0.00 | 0.00 | 6.78 | 98 | 1025.3 |
| 20260502015816 | 12 | 342 | 3.2 | 17.7 | 0.00 | 0.00 | 6.78 | 98 | 1025.2 |
| 20260502015315 | 12 | 328 | 4.8 | 17.7 | 0.00 | 0.00 | 6.78 | 98 | 1025.0 |
| 20260502014814 | 12 | 6 | 4.8 | 17.7 | 0.00 | 0.00 | 6.78 | 98 | 1024.4 |
| 20260502014313 | 12 | 0 | 4.8 | 17.7 | 0.00 | 0.00 | 6.78 | 98 | 1024.0 |
| 20260502013812 | 12 | 357 | 4.8 | 17.7 | 0.00 | 0.00 | 6.78 | 98 | 1023.8 |
| 20260502013311 | 13 | 4 | 4.8 | 17.7 | 0.00 | 0.00 | 6.78 | 98 | 1024.3 |
| 20260502012810 | 13 | 350 | 6.4 | 17.7 | 0.00 | 0.00 | 6.78 | 98 | 1023.6 |
| 20260502012309 | 13 | 7 | 4.8 | 17.7 | 0.00 | 0.00 | 6.78 | 98 | 1023.7 |
| 20260502011808 | 13 | 353 | 3.2 | 17.7 | 0.03 | 0.00 | 6.78 | 98 | 1023.9 |
| 20260502011307 | 13 | 9 | 6.4 | 17.7 | 0.03 | 0.00 | 6.78 | 98 | 1023.9 |
| 20260502010806 | 13 | 3 | 4.8 | 17.7 | 0.03 | 0.00 | 6.78 | 98 | 1024.0 |
| 20260502005749 | 13 | 16 | 3.2 | 17.7 | 0.08 | 0.00 | 6.78 | 98 | 1024.0 |
| 20260502004732 | 13 | 349 | 4.8 | 17.7 | 0.10 | 0.00 | 6.78 | 98 | 1024.4 |
| 20260502004231 | 13 | 16 | 3.2 | 17.7 | 0.13 | 0.00 | 6.78 | 98 | 1024.2 |
| 20260502003214 | 13 | 338 | 3.2 | 17.7 | 0.15 | 0.00 | 6.78 | 98 | 1024.1 |
| 20260502002713 | 13 | 345 | 4.8 | 17.7 | 0.18 | 0.00 | 6.78 | 98 | 1024.1 |
| 20260502002212 | 13 | 30 | 9.7 | 17.7 | 0.18 | 0.00 | 6.76 | 98 | 1023.7 |
| 20260502001711 | 13 | 28 | 6.4 | 19.3 | 0.18 | 0.00 | 6.76 | 98 | 1023.7 |
| 20260502001210 | 14 | 26 | 6.4 | 19.3 | 0.18 | 0.00 | 6.73 | 98 | 1023.7 |
| 20260502000153 | 14 | 3 | 4.8 | 19.3 | 0.25 | 0.00 | 6.73 | 98 | 1023.9 |
| 20260501234620 | 14 | 29 | 4.8 | 19.3 | 0.41 | 0.00 | 6.68 | 98 | 1024.0 |
| 20260501234119 | 14 | 342 | 4.8 | 19.3 | 0.41 | 0.00 | 6.68 | 98 | 1023.8 |
| 20260501233618 | 14 | 342 | 4.8 | 19.3 | 0.36 | 0.00 | 6.63 | 98 | 1023.7 |
| 20260501233118 | 14 | 356 | 4.8 | 19.3 | 0.36 | 0.00 | 6.63 | 98 | 1023.6 |
| 20260501232617 | 14 | 4 | 3.2 | 19.3 | 0.36 | 0.00 | 6.60 | 98 | 1023.2 |
| 20260501231600 | 15 | 335 | 8.0 | 19.3 | 0.33 | 0.00 | 6.58 | 98 | 1023.5 |
| 20260501230542 | 15 | 355 | 3.2 | 19.3 | 0.36 | 0.00 | 6.53 | 98 | 1023.2 |
| 20260501230042 | 15 | 11 | 3.2 | 19.3 | 0.36 | 0.00 | 6.50 | 98 | 1023.1 |
| 20260501225541 | 15 | 332 | 4.8 | 19.3 | 0.41 | 0.00 | 6.43 | 98 | 1022.8 |
| 20260501225040 | 15 | 13 | 4.8 | 22.5 | 0.43 | 0.00 | 6.38 | 97 | 1022.6 |
| 20260501224539 | 15 | 328 | 4.8 | 22.5 | 0.36 | 0.00 | 6.30 | 98 | 1022.6 |
| 20260501224037 | 15 | 321 | 9.7 | 22.5 | 0.30 | 0.00 | 6.25 | 98 | 1022.5 |
| 20260501223537 | 15 | 308 | 12.9 | 20.9 | 0.30 | 0.00 | 6.25 | 98 | 1022.8 |
| 20260501223036 | 15 | 339 | 8.0 | 19.3 | 0.30 | 0.00 | 6.25 | 98 | 1022.1 |
| 20260501222535 | 15 | 336 | 3.2 | 19.3 | 0.28 | 0.00 | 6.22 | 98 | 1021.3 |
| 20260501222034 | 15 | 345 | 4.8 | 19.3 | 0.30 | 0.00 | 6.22 | 98 | 1021.0 |
| 20260501221533 | 15 | 14 | 3.2 | 19.3 | 0.30 | 0.00 | 6.22 | 98 | 1020.5 |
| 20260501221032 | 15 | 5 | 1.6 | 22.5 | 0.30 | 0.00 | 6.20 | 98 | 1020.9 |
| 20260501220531 | 15 | 20 | 9.7 | 22.5 | 0.30 | 0.00 | 6.15 | 98 | 1020.6 |
| 20260501220030 | 15 | 16 | 4.8 | 19.3 | 0.30 | 0.00 | 6.12 | 98 | 1020.9 |
| 20260501215529 | 15 | 12 | 6.4 | 19.3 | 0.25 | 0.00 | 6.02 | 98 | 1021.3 |
| 20260501215028 | 15 | 353 | 3.2 | 24.1 | 0.28 | 0.00 | 5.92 | 98 | 1021.3 |
| 20260501214527 | 15 | 328 | 4.8 | 24.1 | 0.30 | 0.00 | 5.92 | 98 | 1020.9 |
| 20260501214026 | 15 | 27 | 9.7 | 24.1 | 0.30 | 0.00 | 5.92 | 98 | 1019.8 |
| 20260501213525 | 15 | 23 | 9.7 | 22.5 | 0.33 | 0.00 | 5.92 | 98 | 1019.5 |
| 20260501213024 | 15 | 35 | 11.3 | 29.0 | 0.36 | 0.00 | 5.92 | 98 | 1019.9 |
| 20260501212523 | 15 | 20 | 11.3 | 30.6 | 0.36 | 0.00 | 5.92 | 98 | 1019.7 |
| 20260501212022 | 15 | 13 | 6.4 | 30.6 | 0.36 | 0.00 | 5.92 | 98 | 1020.2 |
| 20260501211521 | 15 | 7 | 3.2 | 20.9 | 0.38 | 0.00 | 5.92 | 98 | 1020.8 |
| 20260501211020 | 15 | 13 | 3.2 | 20.9 | 0.41 | 0.00 | 5.92 | 98 | 1020.8 |
| 20260501210519 | 15 | 18 | 4.8 | 20.9 | 0.38 | 0.00 | 5.87 | 98 | 1021.0 |
| 20260501210018 | 15 | 333 | 6.4 | 25.7 | 0.38 | 0.00 | 5.84 | 98 | 1020.9 |
| 20260501205517 | 15 | 30 | 14.5 | 25.7 | 0.36 | 0.00 | 5.77 | 98 | 1020.5 |
| 20260501205016 | 15 | 348 | 8.0 | 19.3 | 0.30 | 0.00 | 5.66 | 98 | 1021.4 |
| 20260501203959 | 15 | 327 | 8.0 | 24.1 | 0.43 | 0.00 | 5.61 | 98 | 1022.0 |
| 20260501203458 | 15 | 359 | 3.2 | 24.1 | 0.46 | 0.00 | 5.59 | 98 | 1021.6 |
| 20260501202957 | 15 | 332 | 12.9 | 22.5 | 0.43 | 0.00 | 5.56 | 98 | 1021.4 |
| 20260501201424 | 15 | 333 | 11.3 | 19.3 | 0.43 | 0.00 | 5.51 | 98 | 1021.4 |
| 20260501200923 | 15 | 325 | 14.5 | 19.3 | 0.43 | 0.00 | 5.51 | 98 | 1021.8 |
| 20260501195906 | 15 | 331 | 9.7 | 19.3 | 0.36 | 0.00 | 5.44 | 98 | 1021.5 |
| 20260501195405 | 15 | 342 | 6.4 | 20.9 | 0.43 | 0.00 | 5.38 | 98 | 1021.3 |
| 20260501194904 | 15 | 345 | 4.8 | 20.9 | 0.61 | 0.00 | 5.36 | 98 | 1020.8 |
| 20260501194403 | 15 | 16 | 4.8 | 19.3 | 0.51 | 0.00 | 5.28 | 98 | 1020.8 |
| 20260501193902 | 15 | 337 | 8.0 | 22.5 | 0.43 | 0.00 | 5.18 | 97 | 1021.6 |
| 20260501193401 | 16 | 327 | 11.3 | 22.5 | 0.38 | 0.00 | 5.13 | 98 | 1022.1 |
| 20260501191828 | 16 | 329 | 11.3 | 19.3 | 0.38 | 0.00 | 5.13 | 97 | 1004.0 |
| 20260501191327 | 16 | 333 | 6.4 | 17.7 | 0.36 | 0.00 | 5.11 | 97 | 1003.9 |
| 20260501190826 | 16 | 351 | 3.2 | 17.7 | 0.33 | 0.00 | 5.08 | 97 | 1019.6 |
| 20260501190325 | 16 | 337 | 6.4 | 22.5 | 0.33 | 0.00 | 5.08 | 97 | 1019.8 |
| 20260501185824 | 16 | 330 | 11.3 | 22.5 | 0.33 | 0.00 | 5.08 | 97 | 1003.3 |
| 20260501185324 | 17 | 331 | 8.0 | 29.0 | 0.30 | 0.00 | 5.03 | 97 | 1003.1 |
| 20260501184822 | 17 | 330 | 16.1 | 29.0 | 0.08 | 0.00 | 4.83 | 96 | 1002.4 |
| 20260501184321 | 17 | 299 | 6.4 | 17.7 | 0.00 | 0.00 | 4.75 | 97 | 1004.2 |
| 20260501183820 | 17 | 326 | 9.7 | 17.7 | 0.00 | 0.00 | 4.72 | 97 | 1003.0 |
| 20260501183319 | 17 | 335 | 6.4 | 17.7 | 0.00 | 0.00 | 4.72 | 97 | 1001.8 |
| 20260501182818 | 17 | 333 | 6.4 | 17.7 | 0.00 | 0.00 | 4.72 | 97 | 1001.4 |
| 20260501182317 | 17 | 330 | 4.8 | 17.7 | 0.00 | 0.00 | 4.72 | 97 | 1001.3 |
| 20260501181816 | 17 | 27 | 6.4 | 17.7 | 0.00 | 0.00 | 4.72 | 97 | 1000.3 |
| 20260501180759 | 17 | 28 | 4.8 | 19.3 | 0.00 | 0.00 | 4.72 | 98 | 999.9 |
| 20260501175742 | 17 | 3 | 3.2 | 19.3 | 0.03 | 0.00 | 4.72 | 99 | 1000.4 |
| 20260501175241 | 17 | 25 | 4.8 | 19.3 | 0.05 | 0.00 | 4.72 | 98 | 1001.7 |
| 20260501174740 | 17 | 35 | 6.4 | 19.3 | 0.08 | 0.00 | 4.72 | 99 | 1002.0 |
| 20260501174239 | 16 | 32 | 11.3 | 22.5 | 0.13 | 0.00 | 4.72 | 99 | 1001.5 |
| 20260501173739 | 16 | 30 | 9.7 | 24.1 | 0.13 | 0.00 | 4.72 | 99 | 1002.2 |
| 20260501173238 | 16 | 42 | 12.9 | 25.7 | 0.15 | 0.00 | 4.72 | 99 | 1002.2 |
| 20260501171149 | 15 | 52 | 20.9 | 29.0 | 0.23 | 0.00 | 4.72 | 99 | 1018.6 |
| 20260501170647 | 15 | 59 | 11.3 | 22.5 | 0.23 | 0.00 | 4.70 | 99 | 1021.1 |
| 20260501165630 | 15 | 36 | 8.0 | 17.7 | 0.20 | 0.00 | 4.67 | 99 | 1021.9 |
| 20260501165129 | 16 | 0 | 1.6 | 17.7 | 0.20 | 0.00 | 4.65 | 99 | 1022.9 |
| 20260501164628 | 15 | 344 | 3.2 | 17.7 | 0.18 | 0.00 | 4.62 | 99 | 1022.8 |
| 20260501164127 | 16 | 13 | 3.2 | 19.3 | 0.20 | 0.00 | 4.62 | 99 | 1022.1 |
| 20260501163626 | 16 | 345 | 3.2 | 19.3 | 0.15 | 0.00 | 4.60 | 99 | 1022.7 |
| 20260501163126 | 16 | 22 | 6.4 | 19.3 | 0.13 | 0.00 | 4.57 | 99 | 1022.3 |
| 20260501162108 | 16 | 29 | 9.7 | 19.3 | 0.13 | 0.00 | 4.52 | 99 | 1022.4 |
| 20260501161608 | 16 | 35 | 9.7 | 19.3 | 0.13 | 0.00 | 4.50 | 99 | 1022.7 |
| 20260501161107 | 16 | 38 | 9.7 | 22.5 | 0.15 | 0.00 | 4.50 | 99 | 1022.8 |
| 20260501160050 | 16 | 22 | 4.8 | 20.9 | 0.25 | 0.00 | 4.47 | 99 | 1022.3 |
| 20260501155549 | 16 | 23 | 4.8 | 32.2 | 0.30 | 0.00 | 4.47 | 99 | 1022.0 |
| 20260501155048 | 16 | 20 | 6.4 | 32.2 | 0.36 | 0.00 | 4.45 | 99 | 1022.4 |
| 20260501154547 | 16 | 35 | 17.7 | 24.1 | 0.38 | 0.00 | 4.45 | 99 | 1021.2 |
| 20260501154046 | 16 | 358 | 3.2 | 17.7 | 0.41 | 0.00 | 4.42 | 99 | 1022.7 |
| 20260501153545 | 16 | 3 | 3.2 | 17.7 | 0.46 | 0.00 | 4.42 | 99 | 1023.2 |
| 20260501152528 | 16 | 21 | 4.8 | 17.7 | 0.48 | 0.00 | 4.42 | 99 | 1022.6 |